Location: Mat�lon
(46.2791°N, 7.1028°E)
Time: 15:43:56
(UTC+00:00)

Cosmos 1174 - Pass Details

Date: 18 September 2020
Orbit: 362 x 1155 km, 66.1° (Epoch: 24 October)

Event Time Altitude Azimuth Distance (km) Brightness Sun altitude
Rises 19:22:16 0° 203° (SSW) 2,907 7.5 -18.6°
Reaches altitude 10° 19:24:19 10° 201° (SSW) 2,114 6.8 -18.9°
Maximum altitude 19:29:09 68° 119° (ESE) 865 4.5 -19.7°
Drops below altitude 10° 19:35:17 10° 38° (NE) 2,670 7.2 -20.6°
Sets 19:38:08 0° 36° (NE) 3,734 8.0 -21.1°
